CW3175 Weather Reports


time (UTC)temp
F
wind
direction
speed
knots
gust
knots
rain 1hr
in
rain 24hr
in
rain mn
in
humidity
%
barometer
mb
20141021065031 53 0 4.3 10.4 0.00 0.02 0.00 71 1014.3
20141021063531 53 351 2.6 8.7 0.00 0.02 0.00 70 1014.2
20141021062033 53 0 4.3 10.4 0.00 0.02 0.00 69 1014.0
20141021060528 53 11 3.5 10.4 0.00 0.02 0.00 70 1013.9
20141021055027 53 0 4.3 10.4 0.00 0.02 0.00 72 1013.8
20141021053529 53 337 3.5 9.6 0.00 0.02 0.00 75 1013.7
20141021052029 53 24 1.7 7.0 0.00 0.02 0.00 76 1013.8
20141021050520 54 29 4.3 11.3 0.00 0.02 0.00 76 1013.7
20141021045020 54 0 1.7 8.7 0.00 0.02 0.02 70 1013.7
20141021043518 54 24 1.7 10.4 0.00 0.02 0.02 68 1013.8
20141021042020 54 0 4.3 10.4 0.00 0.02 0.02 67 1013.9
20141021040520 54 0 5.2 11.3 0.00 0.02 0.02 65 1014.0
20141021035016 54 12 3.5 10.4 0.00 0.02 0.02 64 1013.8
20141021033516 55 346 4.3 9.6 0.00 0.02 0.02 64 1013.8
20141021032013 55 22 4.3 10.4 0.00 0.02 0.02 64 1013.7
20141021030512 55 9 3.5 10.4 0.00 0.02 0.02 63 1013.7
20141021025012 55 60 4.3 10.4 0.00 0.02 0.02 64 1013.7
20141021023512 55 42 6.1 13.9 0.00 0.02 0.02 64 1013.7
20141021022010 55 325 3.5 13.0 0.00 0.02 0.02 65 1013.7
20141021020512 55 351 2.6 10.4 0.00 0.02 0.02 66 1013.7
20141021015008 55 15 2.6 9.6 0.00 0.02 0.02 68 1013.2
20141021013507 55 12 6.1 11.3 0.00 0.02 0.02 69 1013.2
20141021012005 55 0 2.6 9.6 0.00 0.02 0.02 73 1013.1
20141021010448 55 348 3.5 10.4 0.00 0.02 0.02 75 1013.0
20141021004943 55 0 2.6 8.7 0.00 0.02 0.02 76 1013.1
20141021003442 55 0 3.5 8.7 0.00 0.02 0.02 77 1013.1
20141021001940 55 0 2.6 6.1 0.00 0.02 0.02 78 1012.9
20141021000441 55 34 0.9 6.1 0.00 0.02 0.02 78 1012.7
20141020234941 55 24 2.6 6.1 0.00 0.02 0.02 78 1012.6
20141020233440 55 10 4.3 10.4 0.00 0.02 0.02 77 1012.4
20141020231940 56 12 3.5 10.4 0.00 0.02 0.02 76 1012.1
20141020230441 56 26 2.6 8.7 0.00 0.02 0.02 75 1012.1
20141020224941 56 0 4.3 11.3 0.00 0.02 0.02 72 1011.8
20141020223441 56 0 5.2 10.4 0.00 0.02 0.02 72 1011.6
20141020221940 57 26 3.5 10.4 0.00 0.02 0.02 72 1011.2
20141020220439 57 13 5.2 11.3 0.00 0.02 0.02 71 1011.0
20141020214941 57 0 5.2 11.3 0.00 0.02 0.02 73 1010.6
20141020213441 57 34 5.2 10.4 0.00 0.02 0.02 71 1010.3
20141020211941 57 14 4.3 11.3 0.00 0.02 0.02 73 1010.0
20141020210440 58 52 1.7 5.2 0.00 0.02 0.02 75 1009.8
20141020204941 57 42 2.6 6.1 0.00 0.02 0.02 74 1009.5
20141020203434 57 29 3.5 9.6 0.00 0.02 0.02 76 1009.3
20141020201931 57 63 4.3 8.7 0.00 0.02 0.02 76 1009.2
20141020200428 57 42 4.3 11.3 0.00 0.02 0.02 77 1009.1
20141020194926 58 22 7.0 13.0 0.00 0.02 0.02 73 1008.9
20141020193424 60 26 4.3 11.3 0.00 0.02 0.02 65 1008.6
20141020191924 62 64 0.9 6.1 0.00 0.02 0.02 61 1008.3
20141020190423 63 46 0.9 3.5 0.00 0.02 0.02 56 1008.2
20141020184925 64 55 0.9 4.3 0.00 0.02 0.02 54 1008.2
20141020183417 64 74 1.7 8.7 0.00 0.02 0.02 54 1008.3
20141020181915 65 9 0.9 4.3 0.00 0.02 0.02 53 1008.2
20141020180414 64 351 0.9 5.2 0.00 0.02 0.02 55 1008.3
20141020174901 63 0 2.6 6.1 0.00 0.02 0.02 56 1008.5
20141020173353 63 303 0.9 4.3 0.00 0.02 0.02 58 1008.7
20141020171839 62 333 0.9 6.1 0.00 0.02 0.02 59 1008.7
20141020170309 61 115 0.9 6.1 0.00 0.02 0.02 61 1008.8
20141020164806 60 0 1.7 7.8 0.00 0.02 0.02 62 1008.9
20141020163303 60 5 1.7 8.7 0.00 0.02 0.02 62 1008.8
20141020161752 60 331 1.7 8.7 0.00 0.02 0.02 63 1008.8
20141020160252 59 11 1.7 6.1 0.00 0.02 0.02 64 1008.8
20141020154750 59 306 0.9 6.1 0.00 0.02 0.02 66 1008.7
20141020153244 58 290 0.9 8.7 0.00 0.02 0.02 68 1008.7
20141020151737 57 292 1.7 7.8 0.00 0.02 0.02 69 1008.7
20141020150237 57 290 0.9 5.2 0.00 0.02 0.02 71 1008.6
20141020144738 56 267 0.9 7.8 0.00 0.02 0.02 75 1008.4
20141020143230 55 276 0.9 7.8 0.00 0.02 0.02 77 1008.2
20141020141726 54 287 0.0 3.5 0.00 0.02 0.02 81 1008.3
20141020140220 53 294 0.9 5.2 0.00 0.02 0.02 82 1008.4
20141020134655 52 273 0.9 4.3 0.00 0.02 0.02 84 1008.3
20141020133146 52 254 0.0 6.1 0.00 0.02 0.02 86 1008.1
20141020131640 51 290 0.0 4.3 0.00 0.02 0.02 88 1008.2
20141020130134 51 255 0.0 1.7 0.00 0.02 0.02 90 1008.2
20141020124632 50 255 0.0 5.2 0.00 0.02 0.02 90 1008.0
20141020123104 49 252 0.0 3.5 0.00 0.02 0.02 89 1008.0
20141020121554 50 244 0.0 5.2 0.00 0.02 0.02 89 1007.5
20141020120036 50 261 0.0 4.3 0.02 0.02 0.02 89 1007.3
20141020114532 50 198 0.0 2.6 0.02 0.02 0.02 88 1007.3
20141020112955 50 242 0.9 6.1 0.02 0.02 0.02 87 1007.0
20141020111449 50 220 0.0 5.2 0.01 0.01 0.01 85 1007.3
20141020105940 50 228 0.0 3.5 0.00 0.00 0.00 84 1007.4
20141020104431 50 230 0.9 6.1 0.00 0.00 0.00 84 1007.4
20141020102930 50 209 0.0 7.0 0.00 0.00 0.00 83 1007.8
20141020101429 51 217 0.9 7.8 0.00 0.00 0.00 83 1007.9
20141020095929 51 227 0.9 6.1 0.00 0.00 0.00 83 1008.0
20141020094428 51 216 1.7 6.1 0.00 0.00 0.00 82 1008.1
20141020092929 51 216 0.9 9.6 0.00 0.00 0.00 82 1008.2
20141020091420 51 215 0.9 7.0 0.00 0.00 0.00 82 1008.3
20141020085921 51 225 1.7 10.4 0.00 0.00 0.00 82 1008.4
20141020084418 51 232 1.7 6.1 0.00 0.00 0.00 82 1008.4
20141020082917 51 222 2.6 11.3 0.00 0.00 0.00 82 1008.6
20141020081414 51 234 3.5 10.4 0.00 0.00 0.00 81 1008.8
20141020075915 51 197 1.7 11.3 0.00 0.00 0.00 81 1008.9
20141020074403 51 225 2.6 10.4 0.00 0.00 0.00 81 1009.0
20141020072903 51 207 2.6 8.7 0.00 0.00 0.00 80 1009.5
20141020071403 51 173 0.9 7.8 0.00 0.00 0.00 80 1009.8